Wind_Speed
4 3 2 2 2 1 0 1 1 1 2 2 2 3 3 3 3 3 3 3 3 3 3 3 3 3 3 4 5 6 6 7 7 8 8 8 8 8 9 9 9 9 9
4 3 3 3 2 2 1 1 1 1 2 3 3 3 4 4 4 4 4 4 4 4 4 4 4 4 5 5 6 6 7 7 8 8 9 9 9 9 9 10 10 10 10
4 3 3 3 3 2 2 2 2 2 3 4 4 4 5 5 5 4 5 4 4 5 5 5 5 6 6 6 7 7 8 8 8 9 9 10 10 10 9 10 10 10 10
4 3 3 3 3 3 2 2 2 2 4 4 4 5 6 6 6 6 5 5 5 5 6 6 6 6 7 7 7 8 8 9 9 9 10 10 10 10 10 10 10 9 9
5 4 3 3 3 3 2 2 2 3 4 5 5 6 6 6 6 6 6 6 5 6 6 6 7 7 7 7 7 7 8 9 10 10 10 11 11 10 10 10 10 10 9
5 4 4 3 3 3 2 2 3 4 5 5 6 6 6 7 7 6 7 7 6 7 7 7 8 8 8 8 7 7 8 9 10 10 11 11 12 11 10 10 10 10 10
5 4 4 3 3 3 3 3 4 5 5 5 6 6 6 7 7 7 7 6 6 7 7 7 7 7 8 8 8 8 8 8 10 10 11 11 11 11 10 11 11 10 10
5 4 3 3 3 3 3 3 4 5 5 6 6 6 6 7 7 7 6 6 6 6 6 7 7 7 7 7 8 8 8 9 9 10 10 11 11 11 11 11 11 10 10
5 5 4 3 3 3 3 3 4 4 5 6 6 6 6 6 6 6 6 6 6 6 6 7 7 7 7 7 7 8 8 9 9 10 10 11 11 11 11 11 10 10 10
6 6 5 4 3 3 3 3 3 4 5 5 6 6 6 6 5 5 5 5 5 6 6 7 7 7 7 7 7 7 8 9 9 10 11 11 11 11 11 11 11 10 10
6 5 5 4 3 2 2 2 3 4 4 5 5 5 5 5 5 5 5 5 6 6 6 7 7 7 7 7 6 7 8 9 10 10 11 11 11 11 11 12 11 11 11
6 6 5 4 2 1 1 2 3 4 4 4 4 5 4 4 5 5 5 5 6 6 6 6 6 6 6 6 6 7 8 9 10 11 11 11 11 11 11 11 11 11 11
6 6 5 4 2 1 1 2 2 3 3 4 4 4 4 4 4 5 5 5 6 6 6 6 6 6 5 6 6 6 8 9 10 11 11 12 11 11 11 11 11 11 11
6 6 5 3 2 1 1 1 2 2 3 4 3 4 4 4 4 5 5 6 6 6 6 6 5 4 4 5 6 6 7 8 9 10 11 11 11 11 11 10 10 11 11
6 6 5 4 3 2 0 1 1 2 3 3 3 3 3 4 5 5 6 6 6 6 6 5 4 3 4 4 5 6 6 7 8 9 10 11 11 11 10 10 10 10 10
7 6 5 4 3 2 1 0 1 2 3 3 3 3 4 5 5 5 6 6 5 5 4 3 2 2 2 2 3 5 6 7 7 8 9 9 10 10 10 9 9 9 9
8 7 5 5 4 2 1 0 1 2 2 3 4 4 4 5 5 5 6 6 5 5 4 3 2 1 1 1 2 4 5 6 7 8 8 8 9 10 9 9 9 9 9
8 7 6 5 4 2 1 1 1 2 2 4 5 5 4 5 5 6 6 6 6 5 4 3 3 2 1 2 3 4 5 5 7 7 8 8 8 10 10 9 9 9 9
9 8 7 6 5 3 2 1 1 2 3 4 5 5 5 6 6 6 7 7 6 6 5 4 4 4 3 3 3 4 4 4 6 7 8 8 8 8 9 9 9 8 8
10 9 7 6 5 4 3 2 1 2 2 3 5 5 6 6 6 7 7 7 7 6 6 5 5 5 4 4 4 4 5 5 5 7 8 8 8 8 8 8 8 8 7
10 10 8 7 5 5 4 3 2 2 2 3 4 5 6 6 7 7 7 7 7 7 6 6 6 6 5 5 5 6 6 5 6 7 7 8 8 8 8 8 8 7 6
11 10 10 8 7 6 5 4 3 2 3 3 4 5 6 6 7 7 8 8 7 7 7 7 7 6 6 6 6 6 6 5 6 6 6 6 7 7 8 8 8 7 6
12 11 10 9 8 7 6 5 4 3 3 3 4 4 5 6 7 8 8 8 8 7 7 7 7 7 7 6 6 6 5 6 6 6 6 6 6 6 7 7 7 6 6
13 12 10 10 9 8 7 6 5 4 3 3 3 4 5 6 7 8 8 8 8 7 7 7 7 7 7 6 6 6 6 6 6 6 5 5 5 5 5 5 6 6 5
14 13 12 11 10 9 8 7 6 5 4 3 3 3 4 5 6 7 8 8 8 8 7 7 7 7 7 6 6 6 6 6 6 5 5 4 4 4 4 4 5 5 5
15 15 13 12 12 10 10 8 7 6 5 4 3 3 4 4 5 6 7 8 8 8 8 8 8 7 6 6 6 6 5 5 5 5 4 4 4 4 4 4 4 4 5
Wind_Direction
191 192 201 168 155 159 174 318 354 357 354 347 345 349 342 342 335 320 310 318 313 305 298 292 284 267 255 253 251 245 239 233 231 229 231 230 228 228 225 223 222 222 223
201 202 210 189 189 204 250 291 311 341 345 342 334 329 327 326 318 314 304 312 308 298 297 292 281 274 267 258 253 250 244 239 236 233 232 232 231 229 226 223 223 225 226
207 213 213 202 214 227 255 288 297 315 328 327 323 322 322 318 315 314 309 308 302 290 284 285 281 276 273 263 255 250 246 242 237 234 234 233 230 228 228 227 225 226 228
210 213 210 214 230 238 258 283 296 310 317 314 319 321 316 315 311 310 308 301 292 288 282 279 281 279 274 265 258 253 249 243 237 235 234 233 230 228 229 228 224 225 228
209 213 220 234 237 246 268 287 291 299 309 311 317 317 313 311 307 304 303 297 287 285 285 286 281 276 272 263 258 254 250 245 240 235 232 231 229 228 226 223 224 224 228
207 216 228 240 249 243 259 279 283 298 305 310 312 309 308 308 304 301 302 298 287 288 289 289 284 276 267 260 257 254 247 242 239 236 231 229 227 225 223 222 224 225 225
209 216 223 230 248 259 269 282 289 299 303 309 311 307 305 306 302 300 301 298 293 293 291 289 283 277 271 265 258 252 246 240 237 236 232 227 223 221 221 221 223 226 227
206 206 214 228 245 258 265 285 300 298 301 309 310 310 308 309 306 303 304 300 300 299 295 291 284 280 274 266 258 253 246 238 234 232 228 223 219 218 219 222 223 224 225
208 204 212 223 244 267 278 296 309 306 307 308 310 312 313 313 310 306 304 304 301 297 294 291 286 283 275 266 259 252 244 235 232 228 223 218 215 216 217 220 222 222 225
207 208 212 221 247 273 285 298 307 311 312 315 319 318 318 316 310 307 307 307 301 297 295 290 286 281 274 266 257 246 238 231 230 226 222 218 214 214 217 221 223 224 226
205 208 207 219 239 259 289 308 308 316 320 323 323 322 319 317 316 316 314 309 305 303 299 292 285 278 272 265 256 244 236 230 227 225 220 216 213 214 217 220 220 223 226
202 205 206 208 210 244 290 306 315 322 325 332 333 334 334 329 325 324 320 316 313 307 300 295 287 276 270 261 253 243 231 227 223 221 217 214 213 214 215 218 218 221 224
193 194 202 201 204 233 294 311 323 335 340 342 339 342 341 338 335 331 325 322 319 314 307 299 289 278 272 263 251 238 223 220 220 218 216 211 212 213 214 216 216 219 223
192 191 195 195 203 215 265 317 338 345 350 350 351 353 350 350 346 339 334 328 323 320 313 303 290 276 266 260 247 232 220 218 216 216 213 210 212 212 212 214 216 218 223
197 201 201 200 196 199 241 343 351 5 4 8 6 1 0 355 350 345 342 338 332 326 321 312 296 279 267 258 241 223 213 212 212 214 210 209 211 211 210 211 213 215 219
201 200 198 192 193 190 169 18 7 12 14 17 11 6 4 2 1 356 350 348 345 343 341 331 316 290 268 249 223 215 208 208 209 209 203 204 206 205 204 205 207 208 212
202 202 201 197 189 182 160 82 42 25 27 28 19 13 12 13 15 12 5 2 2 6 8 4 353 326 237 193 188 193 196 196 198 196 194 194 197 198 198 199 201 204 209
202 202 202 201 194 196 181 122 73 50 48 38 25 21 21 23 25 20 16 14 15 19 24 30 46 68 105 125 142 165 180 189 192 189 186 184 189 191 195 198 200 205 208
202 201 201 199 197 195 180 156 110 85 61 44 34 34 33 34 33 27 23 20 21 27 37 49 67 82 95 106 122 134 149 167 182 183 181 180 181 184 190 195 199 204 205
201 201 198 197 202 193 177 169 140 105 76 55 46 44 43 43 41 35 29 26 30 36 48 62 72 79 91 101 112 120 132 145 160 168 170 171 175 178 181 186 193 199 202
206 203 198 201 201 196 183 173 154 125 98 72 55 52 52 52 46 39 33 34 41 48 55 63 71 79 87 97 109 115 122 134 142 152 161 167 173 176 182 183 188 192 193
206 201 201 206 207 200 188 177 167 148 119 90 71 64 59 54 48 42 39 41 50 55 62 70 75 81 85 94 107 114 118 127 133 143 152 162 169 175 181 183 187 191 190
201 202 204 204 204 202 190 182 177 162 139 116 91 70 61 56 51 49 49 51 56 61 69 74 77 82 88 92 102 110 114 120 126 137 147 154 162 168 173 183 189 194 198
204 205 206 206 206 202 191 187 182 173 155 134 106 77 67 61 55 55 57 58 61 65 69 73 77 81 88 92 97 107 111 117 122 126 136 146 156 164 172 181 192 199 204
205 205 206 205 205 201 193 191 187 182 169 150 124 92 77 66 61 60 61 62 62 63 66 71 76 81 85 90 95 101 110 116 119 121 127 137 151 163 172 183 200 211 219
207 208 208 206 205 202 197 196 189 185 177 161 139 113 91 76 70 65 63 63 60 60 65 68 72 76 81 86 92 95 103 115 119 118 124 130 142 156 170 188 209 221 234
Height
5900 5900 5899 5899 5899 5899 5899 5899 5898 5898 5898 5897 5896 5896 5895 5894 5894 5893 5893 5893 5893 5893 5892 5892 5892 5892 5892 5892 5892 5893 5893 5893 5894 5894 5895 5895 5896 5897 5897 5898 5898 5899 5899
5899 5899 5899 5899 5899 5899 5899 5898 5898 5898 5897 5897 5896 5895 5895 5894 5893 5893 5892 5892 5892 5892 5892 5891 5891 5891 5891 5891 5891 5891 5892 5892 5892 5893 5893 5894 5894 5895 5896 5896 5897 5898 5898
5899 5899 5899 5898 5898 5898 5898 5898 5898 5897 5897 5896 5896 5895 5894 5893 5893 5892 5892 5891 5891 5891 5890 5890 5890 5890 5889 5889 5889 5890 5890 5890 5891 5891 5892 5892 5893 5894 5895 5895 5896 5896 5897
5898 5898 5898 5898 5898 5898 5898 5897 5897 5897 5896 5896 5895 5894 5893 5892 5892 5891 5891 5890 5890 5889 5889 5888 5888 5888 5888 5888 5888 5888 5889 5889 5889 5890 5890 5891 5891 5892 5893 5894 5895 5895 5896
5897 5897 5897 5897 5897 5897 5897 5897 5897 5896 5896 5895 5894 5893 5892 5891 5890 5890 5889 5889 5889 5888 5887 5887 5886 5886 5886 5886 5886 5887 5887 5887 5887 5888 5888 5889 5890 5891 5892 5893 5893 5894 5894
5896 5896 5896 5896 5896 5896 5896 5896 5896 5895 5895 5894 5893 5892 5891 5890 5889 5888 5888 5887 5887 5886 5886 5885 5885 5884 5884 5884 5884 5885 5885 5885 5886 5886 5887 5887 5888 5889 5890 5891 5892 5893 5893
5895 5895 5895 5895 5896 5895 5895 5895 5895 5894 5894 5893 5892 5891 5890 5889 5888 5887 5886 5886 5885 5885 5884 5884 5883 5882 5882 5882 5882 5882 5883 5883 5884 5884 5885 5886 5886 5888 5889 5890 5890 5891 5892
5894 5894 5894 5894 5895 5894 5894 5894 5893 5893 5892 5892 5891 5890 5888 5887 5886 5885 5885 5884 5884 5883 5883 5882 5882 5881 5880 5880 5880 5880 5881 5881 5882 5882 5883 5884 5885 5886 5887 5888 5889 5890 5891
5893 5893 5894 5894 5894 5893 5893 5893 5892 5892 5891 5891 5889 5888 5887 5886 5885 5884 5883 5883 5882 5882 5881 5880 5880 5879 5878 5878 5878 5878 5879 5879 5880 5880 5881 5882 5883 5884 5886 5887 5887 5888 5889
5892 5892 5892 5893 5893 5893 5893 5892 5891 5891 5890 5889 5888 5887 5886 5885 5884 5883 5882 5881 5881 5880 5879 5879 5878 5877 5877 5876 5876 5876 5877 5877 5878 5879 5880 5881 5882 5883 5884 5885 5886 5887 5888
5891 5891 5892 5892 5892 5892 5892 5891 5891 5890 5889 5888 5887 5886 5885 5884 5883 5882 5881 5880 5879 5879 5878 5877 5876 5875 5875 5874 5874 5874 5875 5875 5876 5877 5878 5879 5880 5881 5882 5883 5884 5886 5887
5890 5890 5891 5891 5892 5891 5891 5891 5890 5889 5888 5887 5886 5885 5884 5883 5882 5881 5880 5879 5878 5877 5876 5875 5874 5874 5873 5873 5872 5872 5872 5873 5874 5875 5876 5877 5878 5880 5881 5882 5883 5884 5885
5889 5890 5890 5891 5891 5891 5891 5890 5889 5888 5888 5887 5886 5885 5884 5882 5881 5880 5879 5878 5877 5876 5874 5873 5873 5872 5871 5871 5870 5870 5871 5871 5872 5873 5874 5875 5877 5878 5879 5880 5881 5882 5884
5888 5889 5890 5890 5890 5890 5890 5889 5889 5888 5887 5886 5885 5884 5883 5882 5881 5879 5878 5877 5875 5874 5873 5872 5871 5870 5870 5869 5869 5869 5869 5870 5870 5871 5872 5874 5875 5876 5877 5879 5880 5881 5882
5888 5889 5889 5890 5890 5889 5889 5889 5888 5888 5887 5886 5885 5884 5882 5881 5880 5878 5877 5876 5874 5873 5871 5870 5869 5869 5868 5868 5867 5867 5868 5868 5869 5870 5871 5872 5874 5875 5876 5877 5878 5879 5881
5887 5888 5888 5889 5889 5889 5889 5889 5888 5887 5886 5886 5884 5883 5882 5881 5879 5878 5876 5875 5873 5872 5870 5869 5869 5868 5867 5867 5867 5867 5867 5867 5868 5869 5870 5871 5873 5874 5875 5876 5877 5878 5879
5886 5887 5888 5888 5888 5889 5889 5888 5888 5887 5886 5886 5884 5883 5882 5880 5879 5877 5876 5874 5873 5871 5870 5869 5868 5867 5867 5866 5866 5866 5866 5867 5867 5868 5869 5871 5872 5873 5874 5876 5877 5878 5878
5885 5886 5887 5888 5888 5888 5888 5888 5888 5887 5886 5886 5884 5883 5882 5880 5879 5877 5876 5874 5873 5871 5870 5869 5868 5867 5867 5866 5866 5866 5866 5866 5867 5868 5869 5870 5871 5872 5874 5875 5876 5877 5878
5884 5885 5886 5887 5887 5888 5888 5888 5888 5887 5887 5886 5884 5883 5882 5880 5879 5877 5876 5874 5873 5871 5870 5869 5868 5867 5867 5866 5866 5866 5866 5866 5867 5868 5869 5870 5871 5872 5873 5874 5875 5876 5877
5883 5884 5885 5886 5887 5887 5887 5888 5888 5887 5887 5886 5885 5884 5882 5881 5879 5878 5876 5875 5873 5872 5871 5869 5868 5868 5867 5867 5867 5867 5867 5867 5867 5868 5869 5870 5871 5872 5873 5874 5875 5876 5876
5882 5883 5884 5885 5886 5887 5887 5888 5888 5888 5887 5886 5885 5884 5883 5882 5880 5879 5877 5875 5874 5873 5871 5870 5869 5869 5868 5868 5868 5868 5868 5868 5868 5868 5869 5870 5871 5873 5873 5874 5875 5876 5876
5881 5882 5883 5885 5886 5886 5887 5887 5888 5888 5887 5887 5886 5885 5884 5883 5881 5880 5878 5877 5875 5874 5872 5871 5871 5870 5869 5869 5869 5869 5869 5870 5869 5869 5870 5871 5872 5872 5873 5874 5875 5876 5876
5879 5881 5882 5884 5885 5886 5887 5887 5888 5888 5888 5887 5887 5886 5885 5884 5882 5881 5879 5878 5876 5875 5874 5873 5872 5871 5871 5870 5870 5871 5870 5870 5870 5871 5871 5871 5872 5873 5874 5874 5875 5876 5876
5878 5880 5882 5883 5884 5885 5886 5887 5888 5888 5888 5888 5887 5887 5886 5885 5884 5882 5881 5879 5878 5877 5876 5875 5874 5873 5873 5872 5872 5872 5872 5872 5872 5872 5872 5872 5873 5873 5874 5875 5875 5876 5876
5876 5879 5880 5882 5883 5885 5886 5887 5887 5888 5888 5888 5888 5887 5886 5886 5885 5884 5882 5881 5880 5878 5877 5876 5876 5875 5874 5874 5873 5873 5873 5873 5873 5873 5873 5874 5874 5874 5874 5875 5875 5876 5876
5875 5877 5879 5881 5882 5884 5885 5886 5887 5888 5888 5888 5888 5888 5887 5887 5886 5885 5884 5883 5882 5880 5879 5878 5877 5876 5876 5875 5875 5874 5874 5874 5875 5875 5874 5874 5875 5875 5875 5875 5875 5875 5875